When you browse on this site, cookies collect data to enhance your experience and personalize the content and advertising you see.
Visit our Privacy Policy to learn more. By continuing to use the site, you agree to this use of cookies and data.
  • en Suisse
  • Liste des pays
  • À 7 jours
  • Température de l'eau
  • Carte météo
  • Widgets météo
  • user-avatar
    Se connecter

    Météo par heure à Dorchester

    Ce jour, 29 Janvier, Mercredi

    Heure Température Précipitation Vent Pression Humidité
    00:00 +1°C° 0 mm 6 m/s 748 mmHg 82%
    01:00 -1°C° 0 mm 6 m/s 748 mmHg 83%
    02:00 0°C° 0 mm 5 m/s 748 mmHg 83%
    03:00 0°C° 0 mm 5 m/s 749 mmHg 84%
    04:00 0°C° 0 mm 5 m/s 749 mmHg 84%
    05:00 0°C° 0 mm 5 m/s 750 mmHg 85%
    06:00 0°C° 0 mm 5 m/s 750 mmHg 85%
    07:00 0°C° 0 mm 5 m/s 751 mmHg 85%
    08:00 0°C° 0 mm 4 m/s 751 mmHg 85%
    09:00 +1°C° 0 mm 4 m/s 752 mmHg 85%
    10:00 +2°C° 0 mm 5 m/s 752 mmHg 81%
    11:00 +5°C° 0 mm 5 m/s 752 mmHg 77%
    12:00 +5°C° 0 mm 6 m/s 753 mmHg 74%
    13:00 +5°C° 0 mm 6 m/s 753 mmHg 75%
    14:00 +7°C° 0 mm 6 m/s 753 mmHg 76%
    15:00 +7°C° 0 mm 6 m/s 752 mmHg 77%
    16:00 +5°C° 0 mm 6 m/s 752 mmHg 80%
    17:00 +5°C° 0 mm 6 m/s 752 mmHg 84%
    18:00 +4°C° 0 mm 6 m/s 752 mmHg 87%
    19:00 +4°C° 0 mm 6 m/s 752 mmHg 88%
    20:00 +4°C° 0 mm 6 m/s 752 mmHg 89%
    21:00 +4°C° 0 mm 6 m/s 752 mmHg 90%
    22:00 +5°C° 0 mm 5 m/s 752 mmHg 91%
    23:00 +5°C° 0 mm 5 m/s 752 mmHg 92%

    Demain, 30 Janvier, Jeudi

    Heure Température Précipitation Vent Pression Humidité
    00:00 +5°C° 0 mm 4 m/s 752 mmHg 93%
    01:00 +4°C° 0 mm 4 m/s 751 mmHg 95%
    02:00 +4°C° 0 mm 3 m/s 751 mmHg 96%
    03:00 +4°C° 0 mm 3 m/s 751 mmHg 97%
    04:00 +4°C° 0 mm 3 m/s 750 mmHg 97%
    05:00 +5°C° 0 mm 3 m/s 749 mmHg 98%
    06:00 +5°C° 0 mm 3 m/s 749 mmHg 98%
    07:00 +7°C° 0 mm 3 m/s 749 mmHg 98%
    08:00 +7°C° 0 mm 3 m/s 748 mmHg 98%
    09:00 +8°C° 0 mm 3 m/s 748 mmHg 98%
    10:00 +9°C° 0 mm 3 m/s 748 mmHg 97%
    11:00 +10°C° 0 mm 4 m/s 747 mmHg 95%
    12:00 +11°C° 0 mm 4 m/s 747 mmHg 94%
    13:00 +10°C° 0 mm 5 m/s 747 mmHg 94%
    14:00 +10°C° 0 mm 5 m/s 747 mmHg 94%
    15:00 +10°C° 0 mm 5 m/s 746 mmHg 94%
    16:00 +10°C° 0 mm 5 m/s 747 mmHg 93%
    17:00 +9°C° 0 mm 6 m/s 747 mmHg 93%
    18:00 +9°C° 0 mm 6 m/s 747 mmHg 93%
    19:00 +9°C° 0 mm 6 m/s 747 mmHg 92%
    20:00 +9°C° 0 mm 6 m/s 748 mmHg 92%
    21:00 +10°C° 0 mm 6 m/s 748 mmHg 91%
    22:00 +9°C° 0 mm 6 m/s 749 mmHg 90%
    23:00 +9°C° 0 mm 6 m/s 750 mmHg 88%

    Après-demain, 31 Janvier, Vendredi

    Heure Température Précipitation Vent Pression Humidité
    00:00 +9°C° 0 mm 6 m/s 750 mmHg 87%
    01:00 +8°C° 0 mm 5 m/s 750 mmHg 89%
    02:00 +7°C° 0 mm 5 m/s 750 mmHg 90%
    03:00 +7°C° 0 mm 5 m/s 751 mmHg 92%
    04:00 +7°C° 0 mm 5 m/s 751 mmHg 92%
    05:00 +7°C° 0 mm 5 m/s 751 mmHg 92%
    06:00 +7°C° 0 mm 5 m/s 751 mmHg 92%
    07:00 +7°C° 0 mm 6 m/s 751 mmHg 92%
    08:00 +8°C° 0 mm 6 m/s 751 mmHg 91%
    09:00 +8°C° 0 mm 6 m/s 751 mmHg 91%
    10:00 +9°C° 0 mm 7 m/s 750 mmHg 90%
    11:00 +10°C° 0 mm 7 m/s 750 mmHg 89%
    12:00 +10°C° 0 mm 7 m/s 750 mmHg 87%
    13:00 +10°C° 0.1 mm 7 m/s 750 mmHg 89%
    14:00 +10°C° 0.1 mm 7 m/s 749 mmHg 91%
    15:00 +10°C° 0.1 mm 7 m/s 749 mmHg 93%
    16:00 +10°C° 0 mm 7 m/s 748 mmHg 93%
    17:00 +10°C° 0 mm 7 m/s 748 mmHg 92%
    18:00 +11°C° 0 mm 6 m/s 748 mmHg 92%
    19:00 +10°C° 0 mm 6 m/s 748 mmHg 93%
    20:00 +10°C° 0 mm 6 m/s 748 mmHg 93%
    21:00 +10°C° 0 mm 5 m/s 747 mmHg 94%
    22:00 +10°C° 0 mm 5 m/s 747 mmHg 94%
    23:00 +10°C° 0 mm 5 m/s 747 mmHg 94%

    1 Février, Samedi

    Heure Température Précipitation Vent Pression Humidité
    00:00 +10°C° 0 mm 5 m/s 746 mmHg 94%
    01:00 +10°C° 0 mm 5 m/s 746 mmHg 95%
    02:00 +10°C° 0 mm 4 m/s 745 mmHg 95%
    03:00 +10°C° 0 mm 4 m/s 745 mmHg 95%
    04:00 +9°C° 0 mm 5 m/s 745 mmHg 93%
    05:00 +9°C° 0 mm 5 m/s 744 mmHg 90%
    06:00 +9°C° 0 mm 6 m/s 744 mmHg 88%
    07:00 +8°C° 0.4 mm 6 m/s 745 mmHg 86%
    08:00 +6°C° 0.4 mm 7 m/s 746 mmHg 83%
    09:00 +5°C° 0.4 mm 7 m/s 747 mmHg 81%
    10:00 +6°C° 0 mm 8 m/s 748 mmHg 77%
    11:00 +6°C° 0 mm 9 m/s 749 mmHg 73%
    12:00 +7°C° 0 mm 10 m/s 750 mmHg 69%
    13:00 +7°C° 0 mm 10 m/s 750 mmHg 68%
    14:00 +6°C° 0 mm 10 m/s 751 mmHg 68%
    15:00 +6°C° 0 mm 10 m/s 752 mmHg 67%
    16:00 +5°C° 0 mm 10 m/s 753 mmHg 69%
    17:00 +5°C° 0 mm 9 m/s 753 mmHg 71%
    18:00 +4°C° 0 mm 8 m/s 754 mmHg 73%
    19:00 +3°C° 0 mm 7 m/s 754 mmHg 76%
    20:00 +3°C° 0 mm 6 m/s 755 mmHg 79%
    21:00 +4°C° 0 mm 4 m/s 756 mmHg 82%
    22:00 +4°C° 0 mm 4 m/s 756 mmHg 83%
    23:00 +4°C° 0 mm 4 m/s 756 mmHg 83%

    2 Février, Dimanche

    Heure Température Précipitation Vent Pression Humidité
    00:00 +3°C° 0 mm 5 m/s 756 mmHg 84%
    01:00 +5°C° 0.5 mm 5 m/s 755 mmHg 87%
    02:00 +5°C° 0.5 mm 5 m/s 754 mmHg 90%
    03:00 +5°C° 0.5 mm 5 m/s 753 mmHg 92%
    04:00 +5°C° 1.5 mm 6 m/s 752 mmHg 93%
    05:00 +7°C° 1.5 mm 6 m/s 751 mmHg 94%
    06:00 +6°C° 1.5 mm 7 m/s 750 mmHg 95%
    07:00 +9°C° 0.3 mm 7 m/s 750 mmHg 94%
    08:00 +10°C° 0.3 mm 7 m/s 750 mmHg 93%
    09:00 +11°C° 0.3 mm 7 m/s 750 mmHg 92%
    10:00 +11°C° 0 mm 7 m/s 751 mmHg 90%
    11:00 +11°C° 0 mm 8 m/s 752 mmHg 87%
    12:00 +12°C° 0 mm 8 m/s 753 mmHg 85%
    13:00 +11°C° 0 mm 7 m/s 753 mmHg 84%
    14:00 +11°C° 0 mm 7 m/s 754 mmHg 83%
    15:00 +10°C° 0 mm 6 m/s 754 mmHg 82%
    16:00 +9°C° 0 mm 5 m/s 755 mmHg 85%
    17:00 +9°C° 0 mm 5 m/s 755 mmHg 89%
    18:00 +8°C° 0 mm 4 m/s 755 mmHg 92%
    19:00 +7°C° 0 mm 4 m/s 756 mmHg 93%
    20:00 +8°C° 0 mm 3 m/s 756 mmHg 94%
    21:00 +8°C° 0 mm 3 m/s 756 mmHg 95%
    22:00 +8°C° 0.1 mm 3 m/s 756 mmHg 95%
    23:00 +8°C° 0.1 mm 3 m/s 756 mmHg 96%

    3 Février, Lundi

    Heure Température Précipitation Vent Pression Humidité
    00:00 +8°C° 0.1 mm 3 m/s 755 mmHg 96%
    01:00 +9°C° 0.4 mm 3 m/s 755 mmHg 96%
    02:00 +8°C° 0.4 mm 4 m/s 754 mmHg 97%
    03:00 +8°C° 0.4 mm 4 m/s 753 mmHg 97%
    04:00 +9°C° 0.1 mm 5 m/s 753 mmHg 96%
    05:00 +9°C° 0.1 mm 6 m/s 752 mmHg 94%
    06:00 +10°C° 0.1 mm 7 m/s 751 mmHg 92%
    07:00 +10°C° 0.2 mm 8 m/s 750 mmHg 92%
    08:00 +11°C° 0.2 mm 9 m/s 749 mmHg 92%
    09:00 +11°C° 0.2 mm 10 m/s 749 mmHg 92%
    10:00 +11°C° 0.2 mm 10 m/s 749 mmHg 88%
    11:00 +11°C° 0.2 mm 10 m/s 749 mmHg 84%
    12:00 +11°C° 0.2 mm 10 m/s 749 mmHg 79%
    13:00 +11°C° 0.1 mm 11 m/s 749 mmHg 78%
    14:00 +11°C° 0.1 mm 11 m/s 749 mmHg 76%
    15:00 +9°C° 0.1 mm 11 m/s 749 mmHg 75%
    16:00 +8°C° 0 mm 11 m/s 749 mmHg 76%
    17:00 +8°C° 0 mm 11 m/s 749 mmHg 77%
    18:00 +7°C° 0 mm 10 m/s 749 mmHg 79%
    19:00 +6°C° 0 mm 10 m/s 749 mmHg 78%
    20:00 +6°C° 0 mm 10 m/s 750 mmHg 78%
    21:00 +6°C° 0 mm 10 m/s 750 mmHg 77%
    22:00 +6°C° 0 mm 10 m/s 750 mmHg 78%
    23:00 +6°C° 0 mm 9 m/s 751 mmHg 79%
    Voir plus